EW8423 Weather Reports


time (UTC)temp
C
wind
direction
speed
KPH
gust
KPH
rain 1hr
cm
rain 24hr
cm
rain mn
cm
humidity
%
barometer
mb
20190421122315 23 129 12.9 25.7 0.00 0.00 0.00 29 1017.9
20190421121810 23 88 11.3 29.0 0.00 0.00 0.00 27 1017.8
20190421121308 23 118 9.7 29.0 0.00 0.00 0.00 27 1018.0
20190421120805 23 109 12.9 29.0 0.00 0.00 0.00 28 1018.0
20190421120300 23 154 12.9 29.0 0.00 0.00 0.00 28 1018.2
20190421115755 23 119 8.0 24.1 0.00 0.00 0.00 27 1018.2
20190421115248 23 86 8.0 24.1 0.00 0.00 0.00 27 1018.2
20190421114740 23 167 11.3 25.7 0.00 0.00 0.00 27 1018.3
20190421114234 23 170 14.5 25.7 0.00 0.00 0.00 29 1018.4
20190421113726 23 143 16.1 25.7 0.00 0.00 0.00 25 1018.5
20190421113219 23 147 16.1 25.7 0.00 0.00 0.00 28 1018.5
20190421112713 22 171 16.1 25.7 0.00 0.00 0.00 30 1018.6
20190421112207 23 154 14.5 25.7 0.00 0.00 0.00 29 1018.7
20190421111659 22 175 12.9 29.0 0.00 0.00 0.00 30 1018.8
20190421111151 22 127 14.5 29.0 0.00 0.00 0.00 30 1018.8
20190421110643 22 167 14.5 29.0 0.00 0.00 0.00 29 1018.9
20190421110133 23 173 16.1 29.0 0.00 0.00 0.00 27 1018.9
20190421105627 22 149 14.5 24.1 0.00 0.00 0.00 29 1019.0
20190421105118 22 159 11.3 24.1 0.00 0.00 0.00 31 1019.1
20190421104612 22 165 11.3 22.5 0.00 0.00 0.00 28 1019.1
20190421104103 22 152 12.9 20.9 0.00 0.00 0.00 28 1019.2
20190421103552 22 177 12.9 22.5 0.00 0.00 0.00 33 1019.3
20190421103042 22 166 11.3 17.7 0.00 0.00 0.00 34 1019.4
20190421102534 22 169 12.9 17.7 0.00 0.00 0.00 30 1019.5
20190421102024 22 158 11.3 17.7 0.00 0.00 0.00 33 1019.6
20190421101514 22 167 11.3 17.7 0.00 0.00 0.00 31 1019.5
20190421101005 21 144 12.9 22.5 0.00 0.00 0.00 35 1019.6
20190421100454 21 181 14.5 20.9 0.00 0.00 0.00 32 1019.8
20190421095945 21 156 16.1 22.5 0.00 0.00 0.00 31 1019.8
20190421095434 21 152 16.1 24.1 0.00 0.00 0.00 32 1019.8
20190421094925 21 150 16.1 24.1 0.00 0.00 0.00 34 1019.9
20190421094414 21 144 16.1 27.4 0.00 0.00 0.00 31 1019.9
20190421093904 21 151 16.1 27.4 0.00 0.00 0.00 32 1019.9
20190421093359 20 168 17.7 27.4 0.00 0.00 0.00 36 1020.1
20190421092848 20 152 16.1 27.4 0.00 0.00 0.00 33 1020.1
20190421092338 20 148 16.1 22.5 0.00 0.00 0.00 35 1020.2
20190421091828 20 157 12.9 20.9 0.00 0.00 0.00 38 1020.2
20190421091328 20 151 11.3 20.9 0.00 0.00 0.00 38 1020.3
20190421090818 19 138 9.7 16.1 0.00 0.00 0.00 37 1020.5
20190421090308 18 175 8.0 12.9 0.00 0.00 0.00 38 1020.5
20190421085758 18 221 8.0 12.9 0.00 0.00 0.00 39 1020.6
20190421085248 17 212 4.8 11.3 0.00 0.00 0.00 39 1020.6
20190421084747 17 180 3.2 8.0 0.00 0.00 0.00 39 1020.6
20190421084246 16 259 4.8 8.0 0.00 0.00 0.00 42 1020.7
20190421084236 16 209 3.2 8.0 0.00 0.00 0.00 47 1020.7
20190421083754 16 209 3.2 8.0 0.00 0.00 0.00 47 1020.7
20190421083226 16 0 1.6 4.8 0.00 0.00 0.00 45 1020.8
20190421082716 15 159 1.6 4.8 0.00 0.00 0.00 43 1020.9
20190421082206 16 182 1.6 4.8 0.00 0.00 0.00 50 1020.9
20190421081656 15 70 0.0 4.8 0.00 0.00 0.00 49 1021.0
20190421081156 14 70 0.0 4.8 0.00 0.00 0.00 48 1021.0
20190421080644 14 70 1.6 4.8 0.00 0.00 0.00 50 1021.1
20190421080134 13 70 1.6 4.8 0.00 0.00 0.00 50 1021.2
20190421075624 13 169 1.6 6.4 0.00 0.00 0.00 50 1021.2
20190421075114 13 169 3.2 6.4 0.00 0.00 0.00 51 1021.3
20190421074605 13 206 3.2 6.4 0.00 0.00 0.00 58 1021.3
20190421074054 12 206 4.8 8.0 0.00 0.00 0.00 53 1021.3
20190421073544 13 226 3.2 8.0 0.00 0.00 0.00 54 1021.4
20190421073034 12 229 3.2 6.4 0.00 0.00 0.00 54 1021.4
20190421072524 12 230 1.6 6.4 0.00 0.00 0.00 57 1021.5
20190421072014 11 230 1.6 6.4 0.00 0.00 0.00 57 1021.5
20190421071504 11 230 3.2 6.4 0.00 0.00 0.00 58 1021.6
20190421070954 11 235 1.6 4.8 0.00 0.00 0.00 60 1021.6
20190421070444 10 236 1.6 4.8 0.00 0.00 0.00 60 1021.7
20190421065934 10 236 1.6 4.8 0.00 0.00 0.00 59 1021.7
20190421065424 10 236 1.6 4.8 0.00 0.00 0.00 60 1021.8
20190421064914 10 236 1.6 4.8 0.00 0.00 0.00 59 1021.7
20190421064404 9 236 1.6 4.8 0.00 0.00 0.00 60 1021.7
20190421063854 9 236 1.6 4.8 0.00 0.00 0.00 64 1021.8
20190421063344 8 236 1.6 3.2 0.00 0.00 0.00 65 1021.8
20190421062834 8 236 1.6 3.2 0.00 0.00 0.00 63 1021.7
20190421062324 8 236 1.6 1.6 0.00 0.00 0.00 65 1021.8
20190421061814 8 236 1.6 4.8 0.00 0.00 0.00 67 1021.8
20190421061304 7 236 3.2 4.8 0.00 0.00 0.00 67 1021.8
20190421060754 7 327 3.2 3.2 0.00 0.00 0.00 68 1021.8
20190421060244 7 327 1.6 3.2 0.00 0.00 0.00 67 1021.8
20190421055734 7 327 1.6 3.2 0.00 0.00 0.00 69 1021.9
20190421055224 6 327 0.0 1.6 0.00 0.00 0.00 68 1021.9
20190421054714 6 327 0.0 1.6 0.00 0.00 0.00 68 1021.9
20190421054204 6 327 0.0 3.2 0.00 0.00 0.00 70 1021.9
20190421053655 5 327 1.6 3.2 0.00 0.00 0.00 72 1022.0
20190421053144 5 327 1.6 3.2 0.00 0.00 0.00 74 1021.9
20190421052635 4 327 1.6 3.2 0.00 0.00 0.00 78 1021.9
20190421052124 3 327 0.0 3.2 0.00 0.00 0.00 78 1021.9
20190421051614 3 327 0.0 3.2 0.00 0.00 0.00 77 1022.0
20190421051104 3 327 1.6 3.2 0.00 0.00 0.00 77 1022.0
20190421050555 3 327 1.6 4.8 0.00 0.00 0.00 77 1022.2
20190421050044 3 327 3.2 4.8 0.00 0.00 0.00 77 1022.0
20190421045534 3 327 3.2 4.8 0.00 0.00 0.00 77 1022.0
20190421045024 3 327 1.6 4.8 0.00 0.00 0.00 77 1022.2
20190421044515 3 327 1.6 4.8 0.00 0.00 0.00 77 1022.2
20190421044004 3 327 1.6 4.8 0.00 0.00 0.00 76 1022.2
20190421043453 3 327 0.0 4.8 0.00 0.00 0.00 77 1022.0
20190421042944 3 327 0.0 0.0 0.00 0.00 0.00 77 1022.0
20190421042435 3 327 1.6 6.4 0.00 0.00 0.00 78 1021.9
20190421041924 3 327 3.2 6.4 0.00 0.00 0.00 78 1021.9
20190421041415 3 327 4.8 6.4 0.00 0.00 0.00 78 1021.9
20190421040904 3 327 4.8 6.4 0.00 0.00 0.00 79 1021.8
20190421040355 3 153 3.2 6.4 0.00 0.00 0.00 79 1021.8
20190421035844 3 153 1.6 4.8 0.00 0.00 0.00 79 1021.8
20190421035335 3 153 0.0 4.8 0.00 0.00 0.00 79 1021.8
20190421034824 3 153 0.0 0.0 0.00 0.00 0.00 78 1021.7
20190421034314 3 153 0.0 0.0 0.00 0.00 0.00 77 1021.7
20190421033804 3 153 0.0 0.0 0.00 0.00 0.00 77 1021.7
20190421033254 3 153 0.0 1.6 0.00 0.00 0.00 77 1021.5
20190421032736 3 153 0.0 1.6 0.00 0.00 0.00 76 1021.5
20190421032226 3 153 0.0 3.2 0.00 0.00 0.00 76 1021.4
20190421031708 3 153 1.6 3.2 0.00 0.00 0.00 75 1021.4
20190421031200 3 153 1.6 3.2 0.00 0.00 0.00 74 1021.5
20190421030650 4 153 1.6 3.2 0.00 0.00 0.00 74 1021.5
20190421030144 4 153 1.6 3.2 0.00 0.00 0.00 75 1021.4
20190421025640 4 153 1.6 6.4 0.00 0.00 0.00 75 1021.5
20190421025132 4 153 1.6 6.4 0.00 0.00 0.00 75 1021.5
20190421024629 4 153 3.2 6.4 0.00 0.00 0.00 74 1021.6
20190421024124 4 153 3.2 6.4 0.00 0.00 0.00 74 1021.6
20190421023618 4 166 3.2 4.8 0.00 0.00 0.00 73 1021.7
20190421023104 4 166 1.6 3.2 0.00 0.00 0.00 72 1021.7
20190421022558 5 166 1.6 3.2 0.00 0.00 0.00 72 1021.8
20190421022052 5 166 1.6 3.2 0.00 0.00 0.00 72 1021.8
20190421021544 5 166 1.6 3.2 0.00 0.00 0.00 72 1021.8
20190421021040 5 166 1.6 3.2 0.00 0.00 0.00 73 1021.8
20190421020536 5 166 1.6 4.8 0.00 0.00 0.00 72 1021.8
20190421020030 5 166 3.2 4.8 0.00 0.00 0.00 71 1021.9
20190421015522 5 166 3.2 4.8 0.00 0.00 0.00 70 1021.9
20190421015018 5 166 1.6 4.8 0.00 0.00 0.00 70 1021.9
20190421014514 5 166 0.0 4.8 0.00 0.00 0.00 70 1021.9
20190421014008 5 166 1.6 4.8 0.00 0.00 0.00 68 1022.0
20190421013500 5 166 1.6 4.8 0.00 0.00 0.00 69 1022.0
20190421012954 5 166 1.6 4.8 0.00 0.00 0.00 69 1022.0
20190421012453 5 166 1.6 3.2 0.00 0.00 0.00 70 1022.2
20190421011950 5 166 1.6 3.2 0.00 0.00 0.00 70 1022.2
20190421011449 5 166 1.6 3.2 0.00 0.00 0.00 70 1022.4
20190421010948 5 166 1.6 3.2 0.00 0.00 0.00 69 1022.4
20190421010445 5 166 0.0 3.2 0.00 0.00 0.00 69 1022.3
20190421005939 5 166 0.0 3.2 0.00 0.00 0.00 69 1022.4
20190421005435 5 166 1.6 3.2 0.00 0.00 0.00 68 1022.4
20190421004929 5 166 1.6 3.2 0.00 0.00 0.00 68 1022.3
20190421004419 5 166 1.6 4.8 0.00 0.00 0.00 67 1022.3
20190421003909 5 166 1.6 3.2 0.00 0.00 0.00 68 1022.3
20190421003402 5 166 1.6 4.8 0.00 0.00 0.00 67 1022.4
20190421002854 6 166 1.6 4.8 0.00 0.00 0.00 66 1022.5
20190421002347 6 166 1.6 4.8 0.00 0.00 0.00 66 1022.6
20190421001841 6 166 0.0 4.8 0.00 0.00 0.00 66 1022.6
20190421001326 6 166 0.0 4.8 0.00 0.00 0.00 66 1022.6
20190421000815 6 166 1.6 4.8 0.00 0.00 0.00 65 1022.6
20190421000307 6 166 3.2 4.8 0.00 0.00 0.00 64 1022.7
20190420235758 6 314 1.6 4.8 0.00 0.00 0.00 64 1022.7
20190420235247 6 314 1.6 4.8 0.00 0.00 0.00 63 1022.7
20190420234741 6 314 1.6 4.8 0.00 0.00 0.00 63 1022.7
20190420234227 6 314 1.6 4.8 0.00 0.00 0.00 62 1022.7
20190420233720 7 314 1.6 3.2 0.00 0.00 0.00 60 1022.8
20190420233209 7 315 1.6 3.2 0.00 0.00 0.00 61 1022.8
20190420232708 7 315 0.0 3.2 0.00 0.00 0.00 59 1022.8
20190420232205 7 315 1.6 3.2 0.00 0.00 0.00 59 1022.9
20190420231703 7 315 1.6 4.8 0.00 0.00 0.00 58 1022.9
20190420231153 8 314 1.6 4.8 0.00 0.00 0.00 57 1022.9
20190420230644 8 314 1.6 4.8 0.00 0.00 0.00 57 1023.0
20190420230133 8 314 3.2 4.8 0.00 0.00 0.00 57 1023.0
20190420225624 8 314 1.6 4.8 0.00 0.00 0.00 56 1023.1
20190420225113 8 314 1.6 4.8 0.00 0.00 0.00 55 1023.2
20190420224603 8 314 0.0 4.8 0.00 0.00 0.00 55 1023.2
20190420224053 9 314 1.6 4.8 0.00 0.00 0.00 52 1023.1
20190420223541 9 314 3.2 12.9 0.00 0.00 0.00 51 1023.1
20190420223031 9 314 4.8 12.9 0.00 0.00 0.00 51 1023.2
20190420222522 9 314 6.4 12.9 0.00 0.00 0.00 51 1023.2
20190420222011 10 314 8.0 12.9 0.00 0.00 0.00 50 1023.2
20190420221502 10 323 8.0 11.3 0.00 0.00 0.00 50 1023.2
20190420220951 10 328 6.4 11.3 0.00 0.00 0.00 50 1023.3
20190420220441 10 319 4.8 9.7 0.00 0.00 0.00 50 1023.2
20190420215934 10 337 6.4 9.7 0.00 0.00 0.00 50 1023.2
20190420215425 10 331 6.4 9.7 0.00 0.00 0.00 50 1023.3
20190420214920 10 330 4.8 9.7 0.00 0.00 0.00 50 1023.2
20190420214411 10 331 4.8 9.7 0.00 0.00 0.00 49 1023.2
20190420213906 10 331 6.4 9.7 0.00 0.00 0.00 49 1023.2
20190420213400 10 318 6.4 9.7 0.00 0.00 0.00 48 1023.4
20190420212848 10 329 4.8 9.7 0.00 0.00 0.00 49 1023.4
20190420212339 10 319 3.2 9.7 0.00 0.00 0.00 48 1023.4
20190420211832 10 319 4.8 9.7 0.00 0.00 0.00 49 1023.4
20190420211321 10 319 4.8 9.7 0.00 0.00 0.00 49 1023.3
20190420210811 10 319 4.8 9.7 0.00 0.00 0.00 50 1023.3
20190420210302 10 319 4.8 6.4 0.00 0.00 0.00 50 1023.3
20190420205752 10 313 3.2 6.4 0.00 0.00 0.00 51 1023.2
20190420205241 10 313 1.6 6.4 0.00 0.00 0.00 51 1023.3
20190420204732 10 313 3.2 4.8 0.00 0.00 0.00 50 1023.3
20190420204221 10 313 3.2 4.8 0.00 0.00 0.00 51 1023.2
20190420203711 10 313 3.2 4.8 0.00 0.00 0.00 50 1023.2
20190420203201 10 313 1.6 4.8 0.00 0.00 0.00 50 1023.1
20190420202650 10 313 1.6 6.4 0.00 0.00 0.00 50 1023.2
20190420202139 11 313 1.6 6.4 0.00 0.00 0.00 48 1023.1
20190420201627 11 313 3.2 6.4 0.00 0.00 0.00 48 1023.2
20190420201117 11 313 3.2 6.4 0.00 0.00 0.00 49 1023.1
20190420200608 11 253 3.2 4.8 0.00 0.00 0.00 47 1023.1
20190420200057 11 253 3.2 4.8 0.00 0.00 0.00 47 1023.0
20190420195547 11 253 3.2 6.4 0.00 0.00 0.00 46 1023.0
20190420195037 11 177 3.2 6.4 0.00 0.00 0.00 46 1023.0
20190420194527 11 117 1.6 6.4 0.00 0.00 0.00 46 1023.1
20190420194017 11 117 3.2 6.4 0.00 0.00 0.00 45 1023.0
20190420193507 12 117 3.2 6.4 0.00 0.00 0.00 45 1023.0
20190420192957 12 117 3.2 6.4 0.00 0.00 0.00 45 1023.0
20190420192447 12 117 1.6 4.8 0.00 0.00 0.00 46 1023.0
20190420191937 12 117 1.6 3.2 0.00 0.00 0.00 45 1023.1
20190420191427 12 117 0.0 3.2 0.00 0.00 0.00 45 1023.1
20190420190917 12 117 0.0 1.6 0.00 0.00 0.00 45 1023.1
20190420190407 12 117 0.0 1.6 0.00 0.00 0.00 44 1023.1
20190420185857 12 117 0.0 1.6 0.00 0.00 0.00 45 1023.1
20190420185347 13 117 0.0 1.6 0.00 0.00 0.00 44 1023.0
20190420184837 13 117 1.6 3.2 0.00 0.00 0.00 42 1023.0
20190420184327 14 117 0.0 1.6 0.00 0.00 0.00 41 1022.9
20190420183817 14 117 0.0 0.0 0.00 0.00 0.00 39 1022.9
20190420183307 14 117 0.0 6.4 0.00 0.00 0.00 40 1022.8
20190420182757 15 117 1.6 6.4 0.00 0.00 0.00 38 1022.8
20190420182255 15 117 3.2 6.4 0.00 0.00 0.00 36 1022.8
20190420181751 16 117 3.2 6.4 0.00 0.00 0.00 34 1022.7
20190420181307 16 138 3.2 8.0 0.00 0.00 0.00 32 1022.7
20190420180728 16 89 3.2 6.4 0.00 0.00 0.00 31 1022.6
20190420180722 17 89 4.8 9.7 0.00 0.00 0.00 29 1022.6
20190420180256 17 89 4.8 9.7 0.00 0.00 0.00 29 1022.6
20190420175705 18 89 6.4 8.0 0.00 0.00 0.00 27 1022.6
20190420175155 18 89 8.0 12.9 0.00 0.00 0.00 23 1022.6
20190420174645 19 95 8.0 12.9 0.00 0.00 0.00 22 1022.5
20190420174134 19 100 8.0 11.3 0.00 0.00 0.00 21 1022.4
20190420173623 20 100 8.0 16.1 0.00 0.00 0.00 20 1022.4
20190420173114 20 98 8.0 16.1 0.00 0.00 0.00 21 1022.4
20190420172603 20 109 9.7 16.1 0.00 0.00 0.00 21 1022.4
20190420172100 20 104 8.0 16.1 0.00 0.00 0.00 21 1022.4
20190420171549 20 116 8.0 14.5 0.00 0.00 0.00 21 1022.4
20190420171039 20 111 8.0 14.5 0.00 0.00 0.00 21 1022.4
20190420170529 20 110 8.0 16.1 0.00 0.00 0.00 20 1022.4
20190420170020 21 122 9.7 16.1 0.00 0.00 0.00 21 1022.4
20190420165519 21 127 9.7 17.7 0.00 0.00 0.00 22 1022.5
20190420165009 21 123 9.7 17.7 0.00 0.00 0.00 20 1022.5
20190420164459 21 103 12.9 17.7 0.00 0.00 0.00 21 1022.6
20190420163949 21 157 12.9 17.7 0.00 0.00 0.00 20 1022.6
20190420163437 21 144 9.7 17.7 0.00 0.00 0.00 21 1022.6
20190420162927 21 128 9.7 16.1 0.00 0.00 0.00 22 1022.6
20190420162417 21 138 9.7 16.1 0.00 0.00 0.00 21 1022.7
20190420161907 21 179 9.7 19.3 0.00 0.00 0.00 21 1022.8
20190420161355 22 170 9.7 19.3 0.00 0.00 0.00 20 1022.9
20190420160837 22 130 11.3 19.3 0.00 0.00 0.00 21 1022.9
20190420160323 22 127 9.7 19.3 0.00 0.00 0.00 21 1022.9
20190420155813 22 142 8.0 16.1 0.00 0.00 0.00 20 1022.9
20190420155257 22 177 8.0 17.7 0.00 0.00 0.00 21 1023.0
20190420154745 23 143 8.0 17.7 0.00 0.00 0.00 20 1023.0
20190420154227 23 135 11.3 17.7 0.00 0.00 0.00 19 1023.0
20190420153718 23 119 11.3 17.7 0.00 0.00 0.00 20 1023.1
20190420153207 23 152 9.7 17.7 0.00 0.00 0.00 20 1023.1
20190420152658 23 114 11.3 20.9 0.00 0.00 0.00 19 1023.2
20190420152140 23 150 11.3 20.9 0.00 0.00 0.00 21 1023.2
20190420151629 23 163 11.3 20.9 0.00 0.00 0.00 20 1023.3
20190420151120 23 151 11.3 20.9 0.00 0.00 0.00 20 1023.3
20190420150607 23 119 11.3 20.9 0.00 0.00 0.00 21 1023.4
20190420150057 23 129 12.9 20.9 0.00 0.00 0.00 21 1023.4
20190420145547 24 194 12.9 20.9 0.00 0.00 0.00 23 1023.5
20190420145037 24 138 11.3 20.9 0.00 0.00 0.00 19 1023.5
20190420144527 24 137 9.7 17.7 0.00 0.00 0.00 22 1023.6
20190420144017 24 155 11.3 17.7 0.00 0.00 0.00 20 1023.6
20190420143507 24 198 11.3 17.7 0.00 0.00 0.00 21 1023.7
20190420142957 24 167 12.9 22.5 0.00 0.00 0.00 15 1023.7
20190420142445 24 142 12.9 22.5 0.00 0.00 0.00 19 1023.8
20190420141927 24 158 12.9 22.5 0.00 0.00 0.00 19 1023.9
20190420141418 24 158 11.3 22.5 0.00 0.00 0.00 21 1023.9
20190420140909 24 133 8.0 19.3 0.00 0.00 0.00 22 1024.0
20190420140356 24 240 9.7 19.3 0.00 0.00 0.00 20 1024.0
20190420135845 24 110 12.9 19.3 0.00 0.00 0.00 20 1024.2
20190420135337 24 179 12.9 22.5 0.00 0.00 0.00 20 1024.2
20190420134827 24 177 11.3 22.5 0.00 0.00 0.00 23 1024.3
20190420134318 24 223 11.3 24.1 0.00 0.00 0.00 24 1024.4
20190420133809 25 144 12.9 24.1 0.00 0.00 0.00 21 1024.4
20190420133301 24 184 14.5 24.1 0.00 0.00 0.00 23 1024.4
20190420132755 24 106 11.3 24.1 0.00 0.00 0.00 23 1024.5
20190420132250 24 140 12.9 20.9 0.00 0.00 0.00 22 1024.5
20190420131743 24 108 16.1 22.5 0.00 0.00 0.00 21 1024.6
20190420131235 24 137 14.5 25.7 0.00 0.00 0.00 25 1024.7
20190420130721 24 167 14.5 25.7 0.00 0.00 0.00 22 1024.8
20190420130211 24 131 17.7 27.4 0.00 0.00 0.00 23 1024.8
20190420125710 24 163 19.3 27.4 0.00 0.00 0.00 23 1024.8
20190420125159 24 131 17.7 25.7 0.00 0.00 0.00 25 1024.9
20190420124643 24 155 16.1 25.7 0.00 0.00 0.00 22 1024.9
20190420124135 24 126 14.5 25.7 0.00 0.00 0.00 27 1025.0
20190420123623 24 138 14.5 25.7 0.00 0.00 0.00 24 1025.1
20190420123119 23 161 11.3 25.7 0.00 0.00 0.00 24 1025.1
20190420122613 23 102 12.9 22.5 0.00 0.00 0.00 23 1025.2